GFSNGP_prec_radar_231.txt.gz
Reflectivity
-20 -20 -20 -20 -20 -20 -16 -20 -19 -20 -20 -20 -20 -19 -20 -20 -20 -20 -20 -20 -20 -20 -20 -20 -20 -20 -20 -20 -20 -20 -20 -20 -16 -8 13 8 11 13 8 14 15 -20 -20 -20
-20 -20 -20 -20 -20 -20 -20 -20 -20 -20 -20 -20 -20 -20 -20 -20 -20 -20 -20 -20 -20 -20 -20 -20 -20 -20 -20 -20 -20 -20 -20 -20 -20 -20 13 -4 18 8 13 13 13 -20 -20 -20
-20 -20 -20 -20 -20 -20 -20 -20 -20 -20 -20 -20 -20 -20 -20 -20 -20 -20 -20 -20 -20 -20 -20 -20 -20 -20 -20 -20 -20 -20 -20 -20 -20 -19 4 8 14 23 1 11 -10 -20 -20 -20
3 -12 -5 -20 -20 -20 -20 -20 -20 -20 -20 -20 -20 -20 -20 -20 -20 -20 -20 -20 -20 -20 -20 -20 -20 -20 -20 -20 -20 -20 -20 -20 -20 -20 -4 22 -2 -16 4 10 -12 -20 15 -20
7 -19 -20 -20 -20 -20 -20 -20 -20 -20 -20 -20 -20 -20 -20 -20 -20 -20 -20 -20 -20 -20 -20 -20 -20 -20 -20 -20 -20 -20 -20 -20 -17 -20 -18 -0 9 30 25 23 6 18 -20 3
-20 -2 -20 -20 -20 -20 -20 -20 -20 -20 -20 -20 -20 -20 -20 -20 -20 -20 -20 -20 -20 -20 -20 -20 -20 -20 -20 -20 -20 -20 -20 -20 -20 -16 2 -7 -20 2 20 -3 29 21 15 13
3 3 -20 -20 -20 -20 -20 -20 -20 -20 -20 -20 -20 -20 -20 -20 -20 -20 -20 -20 -20 -20 -20 -20 -20 -20 -20 -20 -20 -20 -20 -20 -20 -20 -20 -18 6 -13 2 -6 6 22 17 -20
-1 11 -3 -20 -20 -20 -20 -20 -20 -20 -20 -20 -20 -20 -20 -20 -20 -20 -20 -20 -20 -20 -20 -20 -20 -20 -20 -20 -20 -20 -20 -20 -20 -20 -20 -20 9 7 2 18 18 23 18 -20
-17 -18 -20 -18 13 15 -12 -20 -20 -20 -20 -20 -20 -20 -20 -20 -20 -20 -20 -20 -20 -20 -20 -20 -20 -20 -20 -20 -8 -20 -20 -20 -20 -20 -20 -20 -19 12 24 19 14 19 7 -3
-19 -20 -20 -20 -20 -20 -20 -20 -20 -20 -20 -20 -20 -20 -20 -20 -20 -20 -20 -20 -20 -20 -20 -20 -20 -20 -20 -20 -20 -20 -20 -20 -20 -20 -17 -20 -20 -8 20 24 23 23 17 -8
-20 -20 -20 -20 11 -6 -20 -20 -20 -20 -20 -20 -20 -20 -20 -20 -20 -20 -20 -20 -20 -20 -20 -20 -20 -20 -20 -20 -20 -20 -20 -20 -20 -20 -15 -20 6 12 5 19 19 22 13 -19
-20 -20 -20 -20 -20 -19 -20 -20 -20 -20 -20 -20 -20 -20 -20 -20 -20 -20 -20 -20 -20 -20 -20 -20 -20 -20 -20 -20 -20 -20 -20 -20 -9 -20 -20 -14 9 16 28 20 27 38 26 16
-20 -20 -20 -20 -20 -20 -20 -20 -20 -20 -20 -20 -20 -20 -20 -20 -20 -20 -20 -20 -9 3 -1 -8 -20 -20 -20 -20 -20 -20 -20 -20 -5 9 -20 -20 12 11 -11 16 18 23 18 7
-20 2 7 -20 -20 -20 -20 -16 -20 -20 -20 -20 -20 -20 -20 -20 -20 -18 17 17 12 14 17 16 12 -14 -20 -20 -20 -20 -17 23 -8 -20 -20 20 -2 10 -20 -11 -1 5 11 15
-20 -20 13 -4 -20 -20 -20 -20 -16 -11 -20 -20 -20 -20 -20 -20 -12 12 10 22 -7 20 14 18 -0 -20 -20 -20 -19 -11 -15 2 5 -7 -16 -3 -2 6 -20 -15 4 19 13 18
-20 -20 -20 -20 -11 3 -15 -20 -18 4 -5 -20 -8 8 3 4 -15 3 31 21 -7 -16 -18 10 -6 -18 17 0 23 26 23 29 24 10 19 2 -19 -20 -20 2 18 17 15 20
-20 -20 -20 -17 -2 -4 -19 -11 9 -13 -8 10 10 1 -14 -20 -4 20 36 27 20 11 16 -4 23 -1 20 34 33 26 24 21 21 28 23 15 6 2 6 10 24 18 16 25
-20 -20 -9 -20 -7 -12 -18 4 1 20 18 2 -16 -14 -20 -20 2 18 23 25 22 9 6 26 20 27 31 34 29 21 16 22 31 34 37 29 27 34 28 22 12 1 11 9
-20 -20 -19 -19 -1 -10 -7 -9 25 24 3 -20 -20 -20 -20 -5 8 15 29 19 17 14 20 10 9 25 23 28 30 33 25 7 14 18 23 21 15 13 14 12 5 -2 3 4
-20 -20 -20 -20 -20 -13 -20 30 27 22 14 -3 -20 -15 -16 -10 -3 18 19 17 16 12 22 14 16 27 33 36 36 35 31 20 14 10 13 8 -4 -1 3 6 11 8 -4 -13
-20 -20 -20 -20 -20 -19 -19 25 24 1 12 -5 -20 -9 -3 -15 -0 20 15 11 20 30 29 29 28 29 24 30 32 32 33 30 13 -15 -19 -17 -6 -0 -4 -13 -17 -15 -20 -20
-20 -20 -20 -20 -19 5 24 23 30 25 13 -10 -20 -15 1 5 -1 9 10 18 23 24 28 29 29 26 25 22 24 25 20 -4 -16 -17 -19 -18 -20 -20 -20 -20 -19 -20 -20 -20
-19 -18 -20 -20 -9 10 11 20 23 22 11 -7 -20 -20 -20 -18 -12 -11 -7 11 2 -14 -11 -4 4 11 14 12 12 10 8 4 -4 -1 -4 -18 -20 -20 -20 -20 -20 -20 -20 -20
-20 -20 -20 -19 20 7 -5 17 30 27 23 1 -7 -7 -7 -18 -14 -13 7 -6 -20 -20 -20 -17 -20 -14 -8 -2 14 8 5 -7 -19 -20 -20 -20 -20 -20 -20 -20 -20 -20 -20 -20
-20 -20 -20 -20 -20 -0 14 27 30 32 26 4 -16 -5 -2 -16 -20 -9 -20 -20 -12 -19 -17 -20 -20 -20 -20 -19 -17 -20 -20 -20 -20 -20 -20 -20 -20 -20 -20 -20 -20 -20 -20 -20
-20 -20 -20 -20 -20 -20 -15 0 4 21 9 -0 -20 -20 -20 -20 -5 -12 -20 -8 -20 -20 -20 -20 -20 -20 -20 -20 -20 -20 -20 -20 -20 -20 -20 -20 -20 -20 -20 -20 -20 -20 -20 -20
-20 -20 -20 -20 -20 -20 -20 -20 -20 -20 -14 1 -13 -20 -20 -20 6 -5 5 -19 -20 -20 -20 -20 -20 -20 -20 -20 -20 -19 -20 -19 -20 -20 -20 -20 -20 -20 -20 -20 -20 -20 -20 -20

GFSNGP_prec_radar_234.txt.gz
Reflectivity
-20 -20 -20 -20 -20 -20 -20 -20 -19 -20 -20 -10 -15 -9 9 -19 -0 4 7 -11 -20 -20 -20 -20 -20 -20 -20 -20 -20 -20 -20 -20 -11 9 12 -14 -18 -13 -20 -11 -18 -20 11 20
-20 -20 -20 -20 -20 -20 -20 -20 -20 -20 -20 -20 -20 -11 -13 -20 -20 -20 -20 -20 -5 -16 -20 -20 -20 -20 -20 -20 -20 -20 -20 -20 -9 -20 -20 -20 -20 -20 -20 -0 -16 -20 12 -5
-1 -20 -20 -19 -20 -20 -20 -20 -20 -20 -20 -20 -20 -20 -20 -20 -20 -20 -20 -20 -20 -20 -20 -20 -20 -20 -20 -20 -20 -20 -20 -20 -19 -20 -20 -18 -12 -8 12 12 22 3 5 -0
10 9 7 -20 -20 -20 -20 -20 -20 -20 -20 -20 -20 -20 -20 -20 -20 -20 -20 -20 -20 -20 -20 -20 -20 -20 -20 -20 -20 -20 -20 -20 -20 -20 -16 14 5 20 18 17 22 20 21 15
15 10 -12 -20 -20 -20 -20 -20 -20 -20 -20 -20 -20 -20 -20 -20 -20 -20 -20 -20 -20 -20 -20 -20 -20 -20 -20 -20 -20 -20 -20 -20 -20 -20 -20 8 18 25 19 25 26 22 21 -10
15 11 7 -20 -20 -20 -20 -20 -20 -20 -20 -20 -20 -20 -20 -20 -20 -20 -20 -20 -20 -20 -20 -20 -20 -20 -20 -20 -20 -20 -20 -20 -20 -20 -20 -20 -0 23 24 21 22 23 23 -0
15 15 8 -20 -20 -20 -8 -20 -20 -20 -20 -20 -20 -20 -20 -20 -20 -20 -20 -20 -20 -20 -20 -20 -20 -20 -20 -20 -20 -20 -20 -20 -20 -20 -20 -20 -20 -12 2 27 16 27 20 26
16 14 11 -19 -20 -17 -20 -20 -20 -20 -20 -20 -20 -20 -20 -20 -20 -20 -20 -20 -20 -20 -20 -20 -20 -20 -20 -20 -20 -20 -20 -20 -20 -20 -20 -20 -20 -20 -9 7 -10 27 24 24
-17 -4 -20 -20 -8 -20 -20 -19 -20 -20 -20 -20 -20 -20 -20 -20 -20 -20 -20 -20 -20 -20 -20 -20 -20 -20 -20 -20 -20 -20 -20 -20 -20 -20 -20 -20 -20 -20 -7 14 16 22 17 6
6 -20 -20 -19 -20 -20 -20 -15 -20 -20 -20 -20 -20 -20 -20 -19 -20 -20 -20 -20 -20 -20 -20 -20 -20 -20 -20 -20 -20 -20 -20 -20 8 17 -16 -20 -20 -20 -20 -4 18 14 13 0
-20 -20 -20 -20 -20 -19 -19 -20 -20 -20 -20 -20 -20 -20 -20 -20 -20 -20 -20 -20 -20 -20 -20 -20 -20 -20 -20 -20 -20 -20 -20 -5 -11 -20 -15 -18 -20 0 -19 -19 -1 0 12 5
-20 -20 -5 -20 -20 -20 -19 -20 -20 -14 -17 -6 -4 -13 -20 -20 -20 -20 -20 -20 -20 -20 -20 -20 -20 -20 -20 -20 -20 -20 -20 -20 -12 -20 -20 -1 -9 -5 18 21 21 22 22 21
-20 -20 -20 -20 -20 -20 -20 -2 -19 -20 -20 -20 -6 -9 4 -19 -20 -20 -20 -20 -20 -20 -19 -5 -5 -16 -20 -20 -20 -20 -20 -20 -20 5 -20 -20 -20 -7 -2 20 20 17 13 24
-20 -14 -15 -2 -9 -20 -20 -20 -20 -20 -20 -20 -5 -10 3 8 5 3 -3 -14 0 -18 -20 -20 -20 -18 -16 -14 -17 -10 -20 8 -18 -20 -20 -20 -20 -20 -20 -5 16 22 20 18
-19 0 3 -7 -20 -20 -20 -9 0 -9 -20 -20 -1 0 -16 -7 -5 -0 3 -6 -18 -20 -16 -19 -9 17 11 6 15 8 -20 -20 -19 -9 -5 1 -12 -20 7 12 14 4 -3 -1
-15 -17 -20 -20 -11 -20 -10 -1 -1 -0 5 14 13 9 -7 -15 -4 2 -20 -17 -8 19 -1 -20 -3 5 6 12 -13 -20 -11 22 19 -4 17 16 12 11 10 18 13 -9 -15 3
-20 -16 -12 -2 -7 -8 -20 0 0 3 7 5 3 -5 1 2 3 -5 -1 6 24 13 8 12 21 20 17 19 -8 9 14 17 21 18 20 20 12 21 15 20 15 12 7 19
-20 -20 -20 -3 0 4 -20 -20 -5 8 20 11 -4 -20 -19 -6 4 2 -1 12 -6 -4 14 28 30 30 30 29 23 17 8 18 18 14 25 27 27 23 24 23 27 19 25 33
-20 -20 -17 -20 -1 2 3 2 16 20 18 -20 -20 -14 5 2 3 -10 5 15 3 11 18 28 19 35 32 28 27 26 29 30 29 25 30 25 31 30 25 26 30 31 29 26
-20 -20 -13 -8 -3 -12 -2 8 26 23 0 -2 -6 -12 1 2 8 15 25 15 9 21 26 25 15 12 29 35 35 35 34 32 34 29 28 37 38 32 35 32 33 35 35 32
-20 -20 -20 -20 -20 -17 7 24 30 22 -13 -20 -6 -1 -1 10 20 28 13 -2 15 17 14 21 11 19 20 24 24 29 34 33 30 23 26 17 23 26 33 33 25 16 3 -9
-20 -20 -20 -20 -20 -13 7 28 33 20 3 -20 -20 -3 -1 -0 2 2 7 16 28 26 23 26 26 24 29 32 28 30 36 35 29 29 30 27 11 13 10 -0 8 11 -6 -20
-20 -20 -17 -20 -19 10 -2 22 31 29 22 -20 -20 -20 -20 -20 -13 -11 -20 -6 -10 -20 -18 -11 0 14 20 20 30 29 26 19 15 14 18 19 16 12 7 1 -7 -10 -20 -5
-20 -20 -20 -20 -8 2 -7 20 33 33 27 27 1 10 20 -2 -20 -4 -19 -5 8 -4 -11 -5 -20 -13 9 -1 0 -5 4 -12 -5 -6 -8 -2 -11 -20 -20 -1 -18 1 -2 -9
-20 -20 -20 -20 -20 -16 0 19 28 32 30 25 17 6 5 -5 -16 -6 -17 -20 -20 -10 -6 4 3 8 -20 -7 -4 1 -20 -15 -7 1 -0 -20 -0 0 -2 -2 -0 -16 4 4
-20 -20 -16 -20 -20 -20 -14 -3 14 21 22 -3 -11 -12 -8 -15 -10 -9 -4 -12 -20 -13 2 -19 -17 -18 -20 -19 -15 -1 -1 -6 1 -5 -12 -20 -20 -20 -20 -20 -20 5 6 8
-5 -2 -15 -20 -20 -20 -4 -20 1 -2 -2 3 -6 -9 -17 -18 -5 -3 -1 -2 -20 -20 -20 -19 -9 -6 -11 -6 -3 -7 -19 -19 -1 -16 -20 -8 -4 -20 -16 -16 -3 7 8 6

GFSNGP_prec_radar_240.txt.gz
Reflectivity
-20 -20 -20 -20 -20 -20 -17 -14 2 -18 -20 4 7 15 18 5 13 6 -20 -20 -20 -20 -20 -20 -20 -20 -20 -20 -20 -20 -20 -20 -20 -20 -20 -20 -13 -20 -20 -7 6 4 20 7
-20 -20 -20 -20 -20 -20 -20 -20 -20 -20 -20 -13 0 15 16 19 14 -11 -20 -20 -20 -20 -20 -20 -20 -20 -20 -20 -20 -20 -20 -20 -20 -20 -20 -20 -20 -20 -20 -20 -20 -20 -7 15
-1 -18 -20 -20 -20 -20 -20 -20 -20 -16 -20 -12 -6 -15 -2 9 10 -1 -20 -20 -20 -20 -20 -20 -20 -20 -20 -20 -20 -20 -20 -20 -20 -20 -20 -20 -20 -20 -20 -20 -20 -20 -9 2
8 -15 -5 -9 -14 -20 -20 -20 -20 -20 -20 -20 -20 -14 1 0 -16 -20 -20 -20 -20 -20 -20 -20 -20 -20 -20 -20 -18 -18 -20 -20 -20 -20 -18 15 -13 -8 -2 -20 -20 -20 -3 19
13 11 -20 -20 -20 9 -20 -20 -20 -20 -20 -20 -8 7 -13 -9 16 -13 -20 -20 -20 -20 -20 -20 -20 -20 -14 -9 -20 -20 -20 -20 -20 -20 -20 -13 13 13 11 9 9 8 -15 1
20 19 15 6 16 13 -20 -20 -15 -12 -20 -20 -20 -20 -20 -20 -20 -20 -20 -20 -20 -20 -20 -20 -20 -20 -20 -15 -9 -20 -20 -20 -20 -20 -20 -20 -11 8 7 -20 6 -20 -12 -17
11 9 -6 -20 12 -6 -4 -17 -20 -9 -20 -20 -20 -20 -20 -20 -20 -20 -20 -20 -20 -20 -20 -20 -20 -20 -20 -20 -14 -20 -20 -20 -20 -20 -20 -20 -20 -20 -20 -20 -20 -20 -20 -20
-6 18 17 -19 -20 -20 -20 -20 -20 -20 -20 -20 -20 -20 -20 -20 -20 -20 -20 -20 -20 -20 -20 -20 -20 -20 -20 -20 -20 -20 -20 -19 -10 -16 -20 -20 -20 -20 -20 -20 -20 -20 -20 -19
4 3 -20 -5 16 -8 -20 -20 -20 -20 -20 -20 -20 -20 -20 -20 -20 -20 -20 -20 -20 -20 -20 -16 -20 -20 -20 -20 -20 -20 -20 -20 -20 -13 -20 -20 -20 7 -9 -20 -20 -20 -20 -20
-15 -20 -20 -20 -20 -17 -20 -20 -20 -20 -20 -20 -20 -20 -20 -20 -20 -20 -20 -20 -20 -20 -20 -20 -20 -6 -20 -20 -20 -20 -20 -20 -20 6 -16 -4 -18 -8 -20 -20 -20 -20 -20 -20
-20 -20 -20 -20 -20 -20 -20 -20 -20 -15 -16 -20 -20 -20 -20 -20 -20 -20 -20 -20 -20 -20 -20 -20 -20 -20 -20 -20 -20 -20 -20 -20 -20 -20 -20 -1 -13 -20 -19 -20 -17 -20 -20 -20
-20 -16 18 -20 -20 -20 -2 -1 -18 -20 -20 -20 -20 -20 -20 -20 -20 -20 -20 -20 -20 -20 -20 -20 -16 15 -20 18 27 21 -20 -20 -20 -20 -20 -20 -20 -0 1 6 -18 3 12 2
-20 -20 25 -12 -20 -20 -20 -20 -20 -20 -20 -20 -20 -20 -20 -18 -20 -20 -20 -2 -17 -13 -20 -20 -20 -20 -20 -20 -20 -20 -20 -20 -4 2 6 -19 17 -20 -20 -3 -18 -1 9 11
-3 24 22 -13 -20 -20 -20 -20 -20 -20 -20 -20 -20 -8 -20 -20 -2 3 0 5 -7 -20 -13 -6 -9 -20 -20 -20 -20 -20 -20 -20 -20 -20 -20 -12 -17 -20 -20 -20 -20 -16 4 4
-6 -8 -20 -20 -20 -20 -20 -20 -20 -20 -20 -20 2 -19 1 -4 -5 -8 -3 -12 -16 -14 -20 -19 -9 1 -7 -16 -2 -10 -20 -20 -20 -20 -20 -5 -18 -20 -20 -20 -16 -2 1 10
-20 -20 -20 -20 -20 -20 -20 -20 -20 -20 -20 -20 1 -9 -3 8 -20 -15 -1 1 6 -11 -10 -4 -19 -20 -1 -7 -4 15 14 24 17 18 24 14 3 2 -2 -5 -15 1 18 -9
-20 -20 -20 -20 -7 -20 -20 0 1 3 5 3 13 14 -0 -0 0 0 -16 2 -4 -2 6 3 -5 -10 -3 -4 4 14 0 -3 22 17 13 11 30 30 21 -5 -16 -3 14 9
-20 -20 -20 -20 -17 -11 -16 -9 -1 1 3 20 23 26 -18 -15 1 -4 14 20 11 -0 13 14 12 -7 -7 4 23 20 24 0 0 19 39 30 27 26 1 -0 14 16 24 28
-20 -20 -20 -20 -9 -12 -14 -4 4 -5 26 24 19 2 -15 -15 -14 17 20 13 -16 -12 -10 15 12 10 0 4 12 30 30 27 22 16 26 27 34 28 16 17 14 11 26 23
-20 -20 -20 -20 -20 -20 -20 -14 -20 19 26 26 17 -19 -20 -20 -20 -15 -9 6 7 19 16 11 -9 -7 -2 1 20 25 27 31 16 18 26 32 33 23 20 19 9 29 29 25
-20 -20 -20 -20 -20 -20 -20 4 -20 12 25 30 -20 -20 -20 -20 -20 -19 -20 -20 -19 -11 3 8 1 -9 -9 4 18 25 25 27 29 25 14 12 26 22 9 18 32 29 30 32
-20 -20 -20 -20 -20 -20 -20 3 -0 20 24 25 8 -20 2 -10 -20 -11 -20 -13 -17 -20 -17 -11 -11 9 -2 16 3 11 5 -3 -1 6 26 16 5 2 20 30 15 10 30 30
-20 -20 -20 -20 -20 -20 -20 -20 -17 26 25 25 17 11 15 -0 -1 -6 -20 -20 -19 -9 -19 -16 -8 -5 13 6 17 23 29 18 -1 9 8 16 24 25 26 16 9 22 21 23
-20 -20 -20 -20 -20 -20 -20 -20 -20 15 28 27 25 20 9 12 1 -20 -8 -16 6 5 -20 -8 -4 -4 -18 -19 6 14 15 27 30 32 31 30 32 33 31 25 26 19 22 21
-16 -20 -20 -20 -3 -20 4 -1 -20 -15 -14 9 -13 -7 -4 -2 -3 -20 -9 -20 -2 -18 -20 -18 -14 3 -16 -18 -20 -3 4 3 11 14 13 11 15 14 20 24 22 21 18 17
-20 -20 -20 -20 -20 -14 -20 -19 -19 5 -8 -18 -13 1 6 -2 -3 -13 -20 -1 -18 10 -20 -15 -11 -13 -20 -19 -12 -13 -4 -8 8 11 14 15 17 16 16 18 21 20 17 14
-20 -20 4 -20 -20 -11 -19 -16 -20 -14 -7 -10 -12 -16 1 13 -15 -16 6 -20 -20 -20 -1 -20 -16 5 -3 -5 -20 -16 -9 -14 -12 -16 -17 -10 1 4 3 -4 -13 -15 -15 -17

GFSNGP_prec_radar_246.txt.gz
Reflectivity
-20 -20 -20 -20 -20 -20 -20 -20 -20 -17 -1 2 14 24 14 26 21 11 17 14 -15 -20 -20 -20 -20 -20 -20 -20 -20 -15 -7 -2 -0 10 -3 -20 -20 -20 -20 -20 -20 -20 -12 -15
-20 -20 -20 -20 -20 -20 -20 -20 -20 -20 -16 -20 -20 -9 19 6 20 18 16 22 29 33 15 -12 -20 -20 -20 -20 -20 -14 -8 0 -20 -20 -20 -20 -20 -20 -20 -20 -20 -20 -20 -20
-20 -20 -20 -20 -20 -20 -20 -20 -20 -20 -20 -20 -20 -19 -4 10 2 10 18 12 17 -9 0 26 26 24 8 7 6 -1 -14 -20 -20 -20 -20 -20 -20 -20 -20 -20 -20 -20 -20 -20
-20 -20 -20 -20 -20 -20 -20 -20 -18 13 -9 -20 -20 -20 -20 -18 6 -12 -9 6 1 11 7 8 11 8 13 12 -13 -18 -20 -7 -17 -20 -20 -20 -20 -20 -5 -20 -20 -20 -20 -20
-20 -20 -20 -20 -20 -20 -20 -20 -20 -20 -20 -20 -20 -20 -20 -20 -20 -20 -20 -20 -20 -20 -19 -18 -16 -19 -20 -20 -20 -20 -20 -20 -18 -20 -20 -20 -20 -19 6 12 4 9 -20 -20
-20 -20 -20 -20 -20 -20 -20 -20 -20 -20 -20 -20 -20 -20 -20 -20 -20 -20 -20 -20 -20 -20 -20 -20 -20 -20 -20 -20 -20 -20 -20 -20 -20 -20 -20 -20 -20 -20 -19 -20 -19 -12 -15 -20
-20 -20 -20 -20 -20 -20 -20 -20 -20 -20 -20 -20 -20 -20 -20 -20 -20 -20 -20 -20 -20 -20 -20 -20 -20 -20 -20 -20 -20 -20 -20 -20 -20 -20 -20 -20 -20 -20 -20 -20 -20 -20 -20 -20
-20 -20 -20 -20 -20 -20 -20 -20 -20 -20 -20 -20 -20 -20 -20 -20 -20 -20 -20 -20 -20 -20 -20 -20 -20 -20 -20 -20 -20 -20 -20 -20 -20 -20 -20 -20 -20 -20 -20 -20 -20 -20 -20 -20
-20 -20 -20 -20 -20 -20 -20 -20 -20 -20 -20 -20 -20 -20 -20 -20 -20 -20 -20 -20 -20 -20 -20 -20 -20 -20 -20 -20 -20 -20 -20 -20 -20 -20 -20 -20 -20 -20 -20 -20 -20 -20 -20 -20
-20 -20 -20 -20 -20 -20 -20 -20 -20 -20 -20 7 -20 -20 -20 -20 -20 -20 -20 -20 -20 -20 -20 -20 -20 -20 -20 -20 -20 -20 -20 -20 -20 -20 -20 -20 -20 -20 -20 -20 -20 -20 -20 -20
-20 -20 -20 -20 -20 -20 -20 -20 -20 -20 -20 -20 -20 -20 -20 -20 -20 -20 -20 -20 -20 -20 -20 -20 -20 -20 -20 -19 -20 -20 -20 -20 -20 -20 -20 -20 -20 -20 -20 -20 -15 -20 -20 -20
-20 -20 -20 -20 -20 -20 -20 -20 -20 -20 -20 -20 -20 -20 -20 -20 -20 -20 -20 -20 -20 -20 -14 -15 -20 -20 -20 -20 -20 -20 -20 -15 -3 2 -20 -20 -20 -20 9 13 9 9 -13 -20
-20 -20 -20 -20 -20 -20 -20 -20 -20 -20 -20 -20 -20 -20 -20 -4 -20 3 -18 -19 -20 -20 -20 -20 -15 -19 -20 -19 1 -19 -20 -20 -20 -0 -20 -20 -20 -20 -20 -1 0 12 13 -2
-20 -20 -20 -20 -20 -20 -20 -20 -20 -20 -20 -20 -16 -3 10 -5 -17 -9 -11 -20 -20 -20 -20 -20 -20 -20 -20 -17 -20 -13 -17 2 1 -9 8 -8 -20 -12 -10 -9 -20 -20 4 8
-20 -20 -20 -20 -20 -20 -20 -20 -20 -20 -20 -20 -20 -16 -11 -9 7 -18 -20 -20 -20 -20 -20 -20 -8 -11 -9 -11 -14 -7 -3 -5 -12 -12 -13 0 7 4 13 -2 1 -2 -20 -1
-20 -20 -20 -20 -20 -20 -20 -20 -20 -20 -15 -13 -20 -6 2 -10 -4 -20 -20 -20 -20 -13 3 -18 -6 -14 -8 1 1 -2 3 22 15 -9 -10 -3 -6 2 4 -0 -13 -20 -0 -12
-20 -20 -20 -20 -20 -20 -20 -20 -20 -20 -20 -20 -13 -3 7 -20 -4 -20 -20 -20 -20 -5 -4 -20 -20 -20 1 -14 5 -19 -20 -14 8 -6 -6 -3 17 17 -2 -6 -10 -9 -5 8
-20 -20 -20 -20 -20 -20 -20 -10 -11 -20 -19 -20 -20 10 -20 -20 -20 -18 -20 -20 -20 -10 -20 -20 -18 -16 -20 -20 -12 -15 -20 1 2 6 7 18 28 27 28 27 17 11 14 13
-20 -20 -20 -20 -20 -20 -20 -19 6 5 -20 -20 -20 -20 14 15 17 -15 -20 -20 -20 -20 -20 -20 -20 -17 -20 -4 6 -14 -13 2 -8 -10 19 26 28 32 19 11 7 9 10 15
-20 -20 -20 -20 -20 -20 -20 -20 -2 -10 -20 -12 -20 -20 -20 -14 9 -16 -20 -20 -20 -20 -20 -19 -13 -16 -20 -9 6 1 -3 -17 -9 -11 -13 7 11 2 -17 17 12 -4 15 30
-9 -20 -20 -20 -20 -20 -20 -20 -20 -15 -16 -20 -20 -20 5 4 20 -2 -20 -20 -20 -20 -18 -7 -10 -11 -14 -13 5 9 -20 -20 -19 -16 -16 -18 -20 -20 -15 11 12 9 18 22
-20 -20 -20 -20 -20 -20 -20 -20 -20 -18 -4 -9 -8 -16 -13 -20 -11 -1 -20 -2 -7 -19 -7 -14 -10 -18 -7 -20 -12 -19 -20 -18 -19 -20 -20 -20 -18 -19 -16 5 1 5 9 11
-20 -20 -20 -20 -20 -20 -20 -20 -20 -20 -20 -4 -0 -9 -20 -20 16 -2 -20 -18 -18 -19 -20 -19 -4 -19 8 -19 -20 -20 -20 -20 -20 -19 -19 -19 -16 -11 -5 -14 -18 -20 -18 3
-20 -20 -20 -20 -20 -20 -20 -20 -20 -20 -5 -1 -1 -2 -19 -20 -16 17 -0 12 -1 3 -4 -13 -5 -16 5 -20 -20 -20 -20 -20 -20 -20 -15 -18 -8 -10 -15 -15 -20 -18 -6 -5
-20 -20 -20 -20 -20 -20 -20 -20 -20 -20 -20 -18 -20 -20 -20 -12 23 16 -16 4 15 -1 -20 -2 4 6 -3 -20 -20 -20 -20 -20 -20 -20 -20 2 -5 -15 -10 -16 -20 -10 14 7
-20 -20 -20 -20 -20 -20 -11 -1 20 7 -20 -20 -20 -20 -20 -20 -1 12 -19 5 2 2 -20 -19 -9 -19 -20 -20 -20 -20 -19 -20 -20 -19 -16 -2 3 2 5 8 10 5 -6 7
-20 -20 -20 -20 -20 -20 -20 -20 -20 -10 -20 -18 -20 -20 -20 -20 -12 18 -18 -19 -8 1 -20 -17 -20 1 -12 -12 -20 -20 -20 -20 -20 -20 -20 -14 -2 3 1 -1 5 -1 -1 1